Date String (YYYY-MM-DD hh:mm:ss) UTC,Instrument flags,Ambient pressure (hPa),Sample flow (lpm),Bypass flow (lpm),Sample temperature (°C),Ambient temperature (°C),ASC tube jacket temperature (°C),LED temperature (°C),Box temperature (°C),Sample RH (%),Span deviation,Mass concentration (μg/m³),Mass concentration (μg/m³),Mass concentration (μg/m³)
DateTimeUTC,F1_M11,P_M11,Q1_M11,Q2_M11,T1_M11,T2_M11,T3_M11,T4_M11,T5_M11,U1_M11,ZSPAN_M11,X2_M11,X0_M11,X1_M11
2021-09-22 08:00:00,,0837.2,5.01,0.00,28.7,27.6,00.0,38.0,30.5,11.5,0000.0,0003.06,0009.68,0002.31
2021-09-22 08:01:00,,0837.2,4.99,0.00,28.7,27.6,00.0,37.9,30.5,11.5,0000.0,0002.98,0009.30,0002.29
2021-09-22 08:02:00,,0837.2,5.00,0.00,28.7,27.6,00.0,37.9,30.4,11.5,0000.0,0002.96,0009.31,0002.28
2021-09-22 08:03:00,,0837.1,5.00,0.00,28.7,27.6,00.0,37.9,30.4,11.5,0000.0,0002.94,0009.44,0002.26
2021-09-22 08:04:00,,0837.2,5.00,0.00,28.7,27.5,00.0,37.9,30.4,11.5,0000.0,0002.89,0009.54,0002.23
2021-09-22 08:05:00,,0837.2,4.99,0.00,28.7,27.5,00.0,37.9,30.4,11.5,0000.0,0002.90,0008.89,0002.21
2021-09-22 08:06:00,,0837.2,5.01,0.00,28.7,27.5,00.0,37.9,30.4,11.5,0000.0,0002.89,0008.67,0002.18
2021-09-22 08:07:00,,0837.2,4.99,0.00,28.7,27.5,00.0,37.9,30.4,11.5,0000.0,0002.91,0008.48,0002.18
2021-09-22 08:08:00,,0837.2,5.01,0.00,28.7,27.5,00.0,37.9,30.4,11.5,0000.0,0002.91,0008.53,0002.19
2021-09-22 08:09:00,,0837.2,4.99,0.00,28.7,27.5,00.0,37.9,30.4,11.5,0000.0,0002.93,0008.65,0002.19
2021-09-22 08:10:00,,0837.2,5.01,0.00,28.7,27.5,00.0,37.9,30.3,11.5,0000.0,0003.00,0008.62,0002.20
2021-09-22 08:11:00,,0837.2,4.99,0.00,28.7,27.6,00.0,37.9,30.4,11.5,0000.0,0003.10,0008.50,0002.22
2021-09-22 08:12:00,,0837.1,5.00,0.00,28.7,27.5,00.0,37.9,30.3,11.6,0000.0,0003.15,0008.09,0002.24
2021-09-22 08:13:00,,0837.2,5.01,0.00,28.7,27.5,00.0,37.9,30.3,11.6,0000.0,0003.18,0008.29,0002.25
2021-09-22 08:14:00,,0837.2,4.99,0.00,28.6,27.5,00.0,37.9,30.3,11.5,0000.0,0003.18,0008.03,0002.26
2021-09-22 08:15:00,,0837.1,5.01,0.00,28.6,27.4,00.0,37.9,30.3,11.5,0000.0,0003.17,0007.61,0002.26
2021-09-22 08:16:00,,0837.1,5.00,0.00,28.6,27.4,00.0,37.8,30.3,11.5,0000.0,0003.13,0007.68,0002.26
2021-09-22 08:17:00,,0837.1,4.99,0.00,28.6,27.5,00.0,37.8,30.3,11.5,0000.0,0003.12,0007.65,0002.25
2021-09-22 08:18:00,,0837.1,5.00,0.00,28.6,27.5,00.0,37.8,30.3,11.5,0000.0,0003.12,0007.60,0002.25
2021-09-22 08:19:00,,0837.2,5.01,0.00,28.6,27.5,00.0,37.8,30.3,11.5,0000.0,0003.06,0006.92,0002.24
2021-09-22 08:20:00,,0837.1,5.00,0.00,28.6,27.4,00.0,37.8,30.3,11.5,0000.0,0003.11,0006.72,0002.25
2021-09-22 08:21:00,,0837.1,5.00,0.00,28.6,27.4,00.0,37.8,30.3,11.5,0000.0,0003.08,0006.51,0002.26
2021-09-22 08:22:00,,0837.1,5.00,0.00,28.6,27.5,00.0,37.8,30.3,11.5,0000.0,0003.03,0006.86,0002.25
2021-09-22 08:23:00,,0837.1,5.00,0.00,28.6,27.4,00.0,37.8,30.2,11.5,0000.0,0003.00,0007.80,0002.23
2021-09-22 08:24:00,,0837.2,5.00,0.00,28.6,27.4,00.0,37.8,30.3,11.5,0000.0,0002.99,0007.73,0002.22
2021-09-22 08:25:00,,0837.1,5.00,0.00,28.6,27.4,00.0,37.8,30.3,11.5,0000.0,0003.03,0007.74,0002.23
2021-09-22 08:26:00,,0837.1,5.00,0.00,28.5,27.4,00.0,37.8,30.2,11.5,0000.0,0003.09,0007.85,0002.24
2021-09-22 08:27:00,,0837.1,4.99,0.00,28.5,27.4,00.0,37.8,30.2,11.4,0000.0,0003.09,0007.72,0002.25
2021-09-22 08:28:00,,0837.1,5.00,0.00,28.5,27.4,00.0,37.8,30.2,11.4,0000.0,0003.14,0007.68,0002.26
2021-09-22 08:29:00,,0837.1,5.01,0.00,28.5,27.4,00.0,37.8,30.2,11.5,0000.0,0003.16,0007.87,0002.26
2021-09-22 08:30:00,,0837.1,4.99,0.00,28.5,27.4,00.0,37.8,30.2,11.4,0000.0,0003.17,0007.97,0002.27
2021-09-22 08:31:00,,0837.1,5.00,0.00,28.5,27.4,00.0,37.7,30.2,11.4,0000.0,0003.11,0007.83,0002.26
2021-09-22 08:32:00,,0837.1,5.00,0.00,28.5,27.4,00.0,37.7,30.2,11.4,0000.0,0003.10,0008.26,0002.26
2021-09-22 08:33:00,,0837.1,4.99,0.00,28.5,27.4,00.0,37.7,30.2,11.4,0000.0,0003.09,0008.04,0002.25
2021-09-22 08:34:00,,0837.1,5.00,0.00,28.5,27.4,00.0,37.7,30.2,11.4,0000.0,0003.10,0007.60,0002.26
2021-09-22 08:35:00,,0837.1,5.00,0.00,28.5,27.3,00.0,37.7,30.2,11.3,0000.0,0003.05,0007.40,0002.26
2021-09-22 08:36:00,,0837.1,5.00,0.00,28.5,27.3,00.0,37.7,30.1,11.3,0000.0,0003.02,0007.41,0002.25
2021-09-22 08:37:00,,0837.1,5.00,0.00,28.5,27.3,00.0,37.7,30.1,11.2,0000.0,0002.98,0007.33,0002.24
2021-09-22 08:38:00,,0837.1,4.98,0.00,28.5,27.3,00.0,37.7,30.1,11.3,0000.0,0003.00,0007.35,0002.22
2021-09-22 08:39:00,,0837.1,5.01,0.00,28.5,27.3,00.0,37.7,30.1,11.2,0000.0,0002.93,0007.19,0002.22
2021-09-22 08:40:00,,0837.1,5.00,0.00,28.4,27.4,00.0,37.7,30.2,11.2,0000.0,0002.87,0007.21,0002.21
2021-09-22 08:41:00,,0837.1,5.01,0.00,28.4,27.3,00.0,37.7,30.1,11.2,0000.0,0002.86,0007.09,0002.19
2021-09-22 08:42:00,,0837.1,4.99,0.00,28.4,27.3,00.0,37.7,30.2,11.2,0000.0,0002.86,0007.18,0002.17
2021-09-22 08:43:00,,0837.1,4.99,0.00,28.4,27.3,00.0,37.7,30.1,11.2,0000.0,0002.84,0006.81,0002.17
2021-09-22 08:44:00,,0837.1,5.00,0.00,28.4,27.3,00.0,37.7,30.1,11.2,0000.0,0002.81,0008.55,0002.15
2021-09-22 08:45:00,,0837.1,5.00,0.00,28.4,27.2,00.0,37.7,30.1,11.3,0000.0,0002.79,0008.07,0002.16
2021-09-22 08:46:00,,0837.0,5.01,0.00,28.4,27.2,00.0,37.6,30.1,11.2,0000.0,0002.78,0008.05,0002.14
2021-09-22 08:47:00,,0837.0,5.00,0.00,28.4,27.2,00.0,37.6,30.1,11.2,0000.0,0002.77,0008.11,0002.14
2021-09-22 08:48:00,,0837.1,4.99,0.00,28.4,27.3,00.0,37.6,30.1,11.2,0000.0,0002.75,0008.40,0002.12
2021-09-22 08:49:00,,0837.1,5.01,0.00,28.4,27.2,00.0,37.6,30.1,11.1,0000.0,0002.73,0008.39,0002.12
2021-09-22 08:50:00,,0837.0,4.99,0.00,28.4,27.2,00.0,37.6,30.1,11.2,0000.0,0002.81,0008.54,0002.12
2021-09-22 08:51:00,,0837.0,4.99,0.00,28.4,27.2,00.0,37.6,30.0,11.2,0000.0,0002.77,0008.78,0002.10
2021-09-22 08:52:00,,0837.0,5.01,0.00,28.4,27.2,00.0,37.6,30.0,11.3,0000.0,0002.72,0008.87,0002.08
2021-09-22 08:53:00,,0837.0,5.00,0.00,28.4,27.2,00.0,37.6,30.0,11.2,0000.0,0002.72,0008.95,0002.08
2021-09-22 08:54:00,,0837.0,5.00,0.00,28.4,27.2,00.0,37.6,30.0,11.2,0000.0,0002.73,0009.00,0002.07
2021-09-22 08:55:00,,0837.0,5.00,0.00,28.4,27.2,00.0,37.6,30.1,11.1,0000.0,0002.71,0006.96,0002.06
2021-09-22 08:56:00,,0837.0,4.99,0.00,28.3,27.3,00.0,37.6,30.1,11.1,0000.0,0002.69,0006.76,0002.03
2021-09-22 08:57:00,,0837.0,5.00,0.00,28.3,27.2,00.0,37.6,30.0,11.1,0000.0,0002.67,0006.68,0002.02
2021-09-22 08:58:00,,0837.0,5.00,0.00,28.3,27.2,00.0,37.6,30.0,11.0,0000.0,0002.67,0006.65,0002.00
2021-09-22 08:59:00,,0837.0,5.01,0.00,28.3,27.2,00.0,37.6,30.0,11.0,0000.0,0002.66,0005.89,0001.99
